Location: Iesi
(43.5167°N, 13.2333°E)
Time: 16:49:56
(UTC+00:00)

Cosmos 921 Rocket - Pass Details

Date: 08 August 2020
Orbit: 572 x 631 km, 75.8° (Epoch: 22 September)

Event Time Altitude Azimuth Distance (km) Brightness Sun altitude
Rises 21:29:02 0° 333° (NNW) 2,811 7.8 -26.1°
Reaches altitude 10° 21:31:24 10° 324° (NW) 1,899 6.5 -26.3°
Enters shadow 21:34:49 32° 271° (W) 989 4.3 -26.6°
